Regional Weather Roundup
Issued by NWS Kansas City/Pleasant Hill, MO

Home | Current Version | Previous Version | Graphics & Text | Print | Product List | Glossary Off
Versions: 1 2 3 4 5 6 7 8 9 10 11 12 13 14 15 16 17 18 19 20 21 22 23 24 25 26 27 28 29 30 31 32 33 34 35 36 37 38 39 40 41 42 43 44 45 46 47 48 49 50

000
ASUS43 KEAX 022204
RWREAX

WEATHER ROUNDUP FOR EASTERN KANSAS AND NORTHWEST MISSOURI
NATIONAL WEATHER SERVICE KANSAS CITY/PLEASANT HILL MO
500 PM CDT TUE JUN 02 2015

KSZ040-057-103>105-MOZ028-029-037-043-022300-
...KANSAS CITY METROPOLITAN AREA...

CITY           SKY/WX    TMP DP  RH WIND       PRES   REMARKS
K.C. INTL      CLOUDY    72  61  68 SE14      29.98F
K.C. DOWNTOWN  PTSUNNY   75  60  59 SE12      29.97F
LEES SUMMIT    MOSUNNY   73  59  61 VRB7      30.00F
OLATHE - IXD   PTSUNNY   75  62  64 SE12      29.98F
OLATHE - OJC   PTSUNNY   73  61  65 SE9       29.97F
LAWRENCE       PTSUNNY   77  62  59 SE14      29.96F

$$

MOZ001>008-011>017-020>025-030>033-038>040-044>046-053-054-022300-
...NORTHERN AND CENTRAL MISSOURI...

CITY           SKY/WX    TMP DP  RH WIND       PRES   REMARKS
ST. JOSEPH     CLOUDY    71  59  65 SE13      29.98F
MOSBY          MOCLDY    72  55  56 SE7       29.99F
HARRISONVILLE  FAIR      77  61  57 SE9       30.01F
WHITEMAN AFB   MOSUNNY   74  59  59 E9        30.00F
CLINTON        NOT AVBL
SEDALIA        SUNNY     73  58  59 SE9       30.03F
WARSAW         FAIR      77  59  53 E8        30.02F
CHILLICOTHE      N/A     72  58  61 S8        30.03F
MOBERLY        CLOUDY    70  55  60 S6        30.06S
KIRKSVILLE     CLOUDY    68  58  70 S6        30.06S

$$

MOZ041-047>049-056>058-063>065-088>090-097-022300-
...EASTERN AND SOUTHERN MISSOURI...

CITY           SKY/WX    TMP DP  RH WIND       PRES   REMARKS
ST. LOUIS INTL MOSUNNY   74  56  53 VRB6      30.04F
SPIRIT OF STL  PTSUNNY   71  57  61 CALM      30.03F
COLUMBIA       CLOUDY    69  56  62 S6        30.05F
JEFFERSON CITY CLOUDY    69  54  58 SE6       30.05S
ROLLA          CLOUDY    64  56  75 CALM      30.05S
LEBANON        MOSUNNY   73  57  56 E3        30.04S
OSAGE BEACH    MOSUNNY   70  55  60 SE6       30.04F
SPRINGFIELD    MOSUNNY   75  59  57 E5        30.01F
BRANSON        PTSUNNY   73  63  68 CALM      30.03F
NEVADA         PTSUNNY   77  66  69 SE6       30.00S
JOPLIN         CLOUDY    79  66  64 SE7       29.97F
WEST PLAINS    MOSUNNY   72  56  57 E6        30.04F

$$

IAZ060-094-KSZ022-034>040-054-083-096-NEZ052-066-093-022300-
...KANSAS...SOUTHEAST NEBRASKA AND IOWA...

CITY           SKY/WX    TMP DP  RH WIND       PRES   REMARKS
TOPEKA         MOSUNNY   78  65  63 E15       29.94F
MANHATTAN      SUNNY     83  67  58 SE15G24   29.88F
EMPORIA        SUNNY     81  66  60 S18G25    29.92F
CHANUTE        MOSUNNY   81  67  62 S12       29.94F
WICHITA        MOSUNNY   88  64  44 S21       29.86F
OMAHA          CLOUDY    74  60  61 SE22G29   29.92F
LINCOLN        PTSUNNY   78  64  61 SE15      29.90F
FALLS CITY     CLOUDY    72  60  66 SE16      29.94F
LAMONI         MOSUNNY   72  57  59 SE8       30.02F
DES MOINES     PTSUNNY   73  55  53 S17       30.01F

$$



USA.gov is the U.S. government's official web portal to all federal, state and local government web resources and services.